Location: Berlin
(52.5171°N, 13.4421°E)
Time: 16:03:09
(UTC+01:00)

ISS - Visible Passes

Search period start: 19 January 2021 00:00
Search period end: 29 January 2021 00:00
Orbit: 418 x 419 km, 51.6° (Epoch: 20 January)

Date Brightness Start Highest point End Pass type
(mag) Time Alt. Az. Time Alt. Az. Time Alt. Az.
19 Jan -0.7 19:30:28 10° SSW 19:30:32 10° SSW 19:30:32 10° SSW visible
20 Jan -1.8 18:43:12 10° SSW 18:45:00 20° S 18:45:00 20° S visible
21 Jan -1.7 17:56:13 10° S 17:58:19 16° SE 17:59:23 14° ESE visible
21 Jan -1.2 19:31:18 10° WSW 19:32:21 18° SW 19:32:21 18° SW visible
22 Jan -1.3 17:09:57 10° SSE 17:10:48 11° SE 17:11:39 10° ESE visible
22 Jan -2.9 18:43:44 10° SW 18:46:40 38° SSE 18:46:40 38° SSE visible
23 Jan -2.5 17:56:17 10° SSW 17:59:14 29° SSE 18:00:56 19° ESE visible
23 Jan -1.5 19:32:23 10° WSW 19:33:53 24° WSW 19:33:53 24° WSW visible
24 Jan -3.7 18:44:40 10° WSW 18:48:01 61° SSE 18:48:06 60° SSE visible
25 Jan -3.2 17:57:01 10° WSW 18:00:16 49° SSE 18:02:18 20° E visible
25 Jan -1.6 19:33:34 10° W 19:35:14 27° W 19:35:14 27° W visible
26 Jan -3.9 18:45:48 10° W 18:49:10 77° S 18:49:24 71° SE visible
27 Jan -3.6 17:58:01 10° WSW 18:01:23 70° S 18:03:34 20° E visible
27 Jan -1.7 19:34:44 10° W 19:36:30 28° W 19:36:30 28° W visible
28 Jan -3.8 18:46:56 10° W 18:50:19 76° S 18:50:40 65° SE visible
